Theta_e
309 309 309 310 309 310 310 310 310 310 311 311 311 311 311 311 311 311 311 311 311 311 311 311 311 310 310 310 310 310 310 310 311 311 311 312 312 313 312 312 312 312 312 312 312 312 313 313 313 314 314 313 313 315 315 316 316 317 320 319 317 318 318 318 318 317 317 317 315 313 313 315 315 313 313 314 314 314 314 314 314 315 315 315 315 314 315 315
309 309 309 310 310 310 310 310 310 310 311 311 311 311 311 311 311 311 311 311 311 311 311 311 311 310 310 310 310 310 310 310 310 311 311 312 313 312 312 312 313 313 313 313 312 312 313 313 313 314 314 314 314 315 315 316 315 317 320 317 317 320 317 316 317 316 316 317 316 313 313 315 315 314 314 315 315 314 314 315 314 314 315 315 315 315 315 315
309 310 310 310 310 310 310 310 310 310 311 311 311 311 311 311 311 311 310 311 311 311 311 311 311 310 310 310 310 310 310 310 310 311 311 312 313 312 312 313 313 313 313 314 313 313 313 313 313 314 314 314 314 314 315 316 315 316 317 317 318 318 316 314 315 315 314 315 315 314 312 313 314 314 314 315 316 315 316 317 315 315 316 315 316 315 315 315
309 310 310 310 310 309 310 310 310 310 311 311 311 311 311 311 311 310 310 310 311 311 311 311 311 310 310 310 310 310 311 311 311 311 311 313 313 312 313 313 313 313 313 314 313 313 313 313 314 314 314 315 314 314 315 314 315 315 315 317 316 314 315 314 312 313 313 313 314 314 312 313 314 313 314 315 315 316 316 317 316 316 316 316 316 315 315 315
309 310 310 309 309 309 309 310 310 310 311 311 311 311 311 310 310 310 310 310 311 311 311 311 310 310 310 310 310 310 312 312 312 313 312 313 313 312 313 313 313 313 313 314 314 313 313 314 314 314 315 316 315 315 315 313 314 315 314 314 313 312 315 313 311 312 313 313 313 313 313 314 314 313 314 315 316 317 317 317 316 316 316 316 315 315 315 315
309 309 309 309 309 309 309 310 310 310 311 311 311 310 310 310 310 310 310 310 310 311 311 310 310 310 310 310 310 311 312 312 313 313 313 314 313 312 313 312 313 313 313 313 313 313 313 314 314 315 316 316 315 315 314 312 314 315 314 312 311 312 314 313 312 313 313 313 313 314 314 314 313 314 314 314 316 317 317 316 316 316 315 315 315 315 315 315
309 309 308 309 309 309 309 310 310 310 310 309 309 309 309 309 310 310 309 309 310 311 311 310 310 310 310 310 310 310 312 312 313 313 313 314 313 312 313 312 313 313 313 313 313 314 313 314 315 315 316 315 314 315 314 313 314 316 315 313 311 311 312 313 312 312 313 313 314 313 314 313 314 315 313 313 315 316 316 316 315 315 316 315 315 315 315 315
308 308 308 308 308 309 309 309 308 308 308 307 307 307 307 308 309 309 309 309 309 310 310 310 310 309 310 310 310 311 311 312 312 312 312 313 312 312 313 313 313 312 313 313 313 314 314 314 315 314 315 315 315 315 313 314 315 316 315 313 312 311 312 312 312 312 312 312 313 312 314 314 313 313 312 313 315 315 315 315 315 315 315 315 315 315 315 315
307 307 307 307 307 307 307 307 307 306 306 306 306 306 307 307 308 308 308 308 309 309 309 310 309 309 310 310 310 311 311 312 312 312 312 312 312 313 313 313 313 314 314 313 313 314 314 315 315 315 315 314 314 315 313 315 316 315 314 313 313 312 312 312 311 312 312 312 312 313 314 313 312 312 313 315 315 316 315 315 315 315 316 315 316 316 315 315
306 306 306 306 306 306 306 306 306 306 306 306 306 306 306 306 307 307 307 308 308 309 309 309 309 309 310 310 310 311 312 311 312 312 312 312 312 312 312 313 314 315 314 313 313 314 314 315 315 315 315 314 314 314 314 315 315 313 313 313 314 313 312 312 312 312 312 312 312 314 314 313 312 312 315 317 316 316 316 315 315 315 316 316 315 315 315 315
306 306 306 306 306 306 306 306 306 306 306 306 306 306 306 306 306 307 307 308 308 309 309 309 309 309 309 310 311 311 312 312 311 312 312 312 312 312 312 313 315 316 315 313 314 314 315 315 315 315 315 315 315 314 313 314 314 313 313 315 315 314 314 313 314 313 313 313 312 313 314 313 311 312 316 317 315 316 316 315 316 315 315 315 315 315 315 315
307 307 307 307 307 307 307 308 307 307 307 308 307 307 307 307 307 307 307 307 308 308 308 309 309 309 310 310 310 312 314 313 312 312 312 312 312 312 313 314 316 317 315 315 315 315 315 315 315 315 315 315 315 314 314 313 313 314 314 316 316 315 315 314 314 313 314 314 313 313 314 315 314 314 316 316 315 315 315 315 315 315 316 315 315 315 315 315
308 309 309 309 309 309 309 309 309 309 308 308 308 308 308 308 308 308 307 308 308 308 308 308 309 309 309 310 310 311 314 314 313 313 312 312 312 312 313 314 315 317 316 315 315 315 316 316 315 315 315 315 315 314 314 313 314 315 314 315 316 316 316 314 312 312 313 314 313 313 315 316 317 317 317 316 315 315 315 315 315 315 316 315 315 315 315 316
309 309 309 309 309 309 309 308 308 308 308 307 307 307 307 307 308 308 308 308 308 308 308 308 309 309 309 311 312 311 312 312 312 312 312 312 312 312 313 314 315 317 317 316 316 316 316 316 316 315 315 315 314 314 315 314 314 315 314 315 316 316 315 314 312 312 314 314 312 314 314 317 318 318 316 315 315 315 314 315 315 315 316 315 315 316 316 316
309 309 309 309 308 308 308 307 307 307 307 307 307 307 307 307 307 307 308 308 308 309 309 309 309 310 310 310 312 311 311 311 311 312 312 312 312 312 313 314 315 316 317 317 316 316 316 316 316 315 314 314 315 315 316 315 314 314 313 315 316 314 315 315 311 311 314 313 312 314 316 317 318 318 316 315 315 314 314 315 315 316 316 316 315 315 316 316
308 308 308 308 308 308 307 307 307 306 306 307 307 307 307 307 307 307 308 307 308 308 308 309 309 310 310 310 311 312 311 311 310 311 312 313 312 312 313 313 314 316 317 317 316 316 317 316 316 314 313 314 316 316 316 315 315 315 314 315 316 315 316 315 311 309 311 312 312 313 315 317 317 316 315 314 315 314 314 315 315 316 316 316 316 316 316 316
308 308 307 307 307 307 307 307 306 306 306 306 306 306 306 306 306 307 308 308 308 308 308 309 309 309 310 310 311 312 311 311 311 311 312 313 312 312 313 313 314 316 316 316 316 316 317 316 315 314 315 315 315 316 315 313 314 315 315 315 315 314 314 314 313 310 309 311 314 313 314 316 317 317 315 314 314 313 313 314 315 316 316 316 316 316 316 316
310 308 308 308 308 308 307 307 307 307 306 306 306 306 306 306 306 307 307 307 308 308 308 309 310 309 310 310 311 312 312 311 311 311 311 313 313 312 313 314 314 315 316 316 316 316 316 315 315 316 316 314 315 316 314 313 314 314 315 315 314 314 313 314 315 312 310 311 313 314 314 315 316 317 317 316 315 313 312 314 314 315 315 316 317 317 317 317
315 313 310 308 308 307 308 308 308 308 307 307 307 306 307 307 307 307 307 307 308 309 310 311 310 311 311 310 311 313 313 311 311 311 311 312 313 313 313 314 314 315 314 315 316 315 315 316 316 316 317 316 316 316 314 314 314 315 316 315 314 314 314 315 314 311 310 313 314 315 315 315 316 316 317 317 315 313 312 313 313 314 316 317 317 318 318 318
320 319 317 314 311 308 307 307 307 308 308 308 308 307 307 308 308 308 307 307 308 309 311 311 310 311 313 311 310 313 313 312 312 312 311 312 313 313 314 314 315 315 314 315 316 314 314 316 317 316 316 316 316 315 313 313 313 316 316 315 315 315 314 315 314 310 309 313 315 315 315 316 316 316 317 317 315 313 313 313 313 314 315 316 317 318 318 318
321 321 321 320 317 313 309 307 307 307 307 308 308 307 308 308 309 309 308 308 308 308 309 310 310 310 312 312 311 312 313 312 313 313 312 313 313 314 314 314 314 315 313 314 315 314 314 316 317 316 315 314 314 312 311 312 313 314 314 315 316 315 315 315 313 309 309 312 315 315 314 315 315 315 317 317 315 315 314 314 314 315 315 316 317 317 317 318
322 322 321 321 321 319 315 311 307 306 307 307 307 307 308 307 308 309 310 310 309 308 308 309 309 310 311 312 312 311 312 313 313 314 313 313 314 314 314 314 314 314 313 312 314 314 315 316 316 314 312 311 311 310 312 313 313 314 315 315 315 315 315 313 311 309 309 312 315 315 313 314 315 315 316 317 316 316 316 315 315 316 315 315 316 317 317 317
322 322 321 321 322 321 320 317 312 308 307 307 307 307 307 307 308 308 309 310 310 309 308 308 309 310 310 311 312 312 312 313 313 314 314 313 314 313 314 314 313 314 313 313 314 314 314 314 314 312 311 312 311 310 312 313 313 315 315 315 315 316 315 312 312 310 309 311 313 313 313 314 315 314 316 316 316 315 315 315 315 314 315 315 316 316 316 317
322 322 322 321 321 321 322 321 317 313 309 307 307 307 307 308 308 308 308 309 310 310 309 309 308 308 309 310 311 312 312 313 313 314 314 313 314 313 314 314 313 313 313 313 314 314 314 312 310 310 312 313 312 311 312 314 314 315 315 315 316 317 315 313 312 312 311 310 310 312 314 315 316 316 317 317 315 314 314 314 314 315 315 316 315 316 316 316
322 322 322 322 321 321 321 321 321 318 314 310 308 306 307 308 308 307 308 309 311 310 309 309 309 309 309 309 310 311 312 312 312 313 313 313 314 313 313 312 312 313 313 313 312 313 313 310 309 310 311 313 313 312 314 315 314 315 315 316 315 315 315 314 313 314 314 314 311 312 313 315 317 316 317 317 315 315 316 315 315 315 316 316 315 316 316 316
322 322 322 322 322 321 321 321 321 320 317 314 311 308 307 308 308 308 309 311 312 311 310 310 310 310 309 309 310 311 312 311 311 313 313 314 313 313 313 312 311 312 313 312 312 313 312 309 311 313 312 313 314 313 314 315 314 315 315 314 314 314 315 315 315 314 314 314 312 311 313 314 315 315 316 317 316 316 317 317 317 316 316 316 315 316 316 316
321 322 322 322 322 322 321 321 321 320 318 316 314 310 309 309 309 308 309 312 313 313 312 310 310 311 310 310 310 310 311 311 311 312 313 314 313 313 313 312 310 311 311 311 312 313 312 310 311 314 314 314 314 313 314 314 314 315 314 312 312 314 315 315 315 315 315 315 313 313 315 315 315 316 316 316 316 316 317 317 318 318 317 317 316 316 315 315
321 322 322 323 322 322 322 321 321 321 319 318 315 311 310 310 311 311 311 313 314 314 312 310 309 310 310 310 310 310 310 310 312 313 313 313 313 313 312 312 312 312 310 311 313 312 312 314 313 313 314 313 315 316 314 313 314 315 311 310 311 313 315 315 315 316 315 314 314 315 315 314 315 317 315 316 316 317 318 317 318 320 318 316 316 315 315 315
320 321 322 322 322 322 322 321 321 321 320 318 314 311 311 312 313 314 313 314 315 314 312 311 310 310 310 310 309 309 309 310 312 313 313 313 313 312 312 312 312 312 310 311 314 313 311 312 311 312 314 313 314 313 311 314 314 312 309 310 312 313 313 314 315 316 314 314 316 317 315 313 314 317 315 314 316 318 319 318 319 320 318 316 316 316 316 316
319 320 321 321 321 321 321 321 321 321 320 319 314 310 312 314 315 317 316 317 317 314 311 311 310 310 310 310 309 309 309 311 312 312 312 312 312 312 311 311 311 312 312 311 313 312 308 308 309 312 313 312 311 308 307 313 313 310 312 314 314 313 313 314 314 314 315 316 316 317 316 313 313 315 317 316 316 319 320 318 318 319 317 316 316 317 317 316
317 319 320 320 321 321 321 321 321 321 321 319 313 310 313 315 316 320 319 318 317 314 311 310 311 310 310 310 309 309 310 311 312 312 312 312 312 311 311 311 311 313 313 313 313 312 309 310 311 311 310 309 311 309 308 308 308 311 316 317 315 314 314 315 315 315 316 316 315 314 315 315 313 314 316 317 315 315 317 318 319 320 318 316 316 317 317 316
315 317 319 320 320 320 320 320 321 321 320 318 311 311 317 318 317 321 321 316 316 316 313 312 311 310 310 311 311 310 310 311 312 313 313 312 312 312 312 313 313 313 313 313 314 313 312 313 312 310 309 310 314 313 310 309 310 313 316 315 314 314 314 315 316 316 316 316 312 310 313 314 314 315 315 315 315 315 315 316 317 319 318 316 316 316 316 316
313 315 317 318 319 319 319 320 320 320 321 317 312 313 318 319 319 321 320 317 318 315 312 312 311 310 310 311 311 310 311 312 312 312 313 313 313 313 313 314 314 314 313 313 314 312 313 314 312 312 311 311 314 314 313 312 312 314 315 315 314 314 314 315 315 312 313 314 310 308 312 315 315 316 316 315 316 316 316 315 315 316 316 316 316 316 316 316
313 313 314 316 318 318 318 319 318 320 319 315 313 315 317 319 320 321 320 320 318 313 311 312 311 310 311 311 312 310 310 311 311 312 313 313 314 314 314 313 312 313 313 313 313 313 313 313 312 313 313 312 313 314 316 316 313 314 316 315 314 314 315 314 313 312 313 314 310 308 312 316 316 316 315 314 314 315 316 315 315 315 315 316 316 315 315 315
312 312 313 314 316 317 317 318 318 319 317 313 313 316 317 319 319 320 320 320 318 313 311 311 311 311 311 312 312 310 310 311 311 312 313 313 314 314 314 313 312 312 313 312 312 312 313 313 313 312 311 312 313 314 315 316 314 314 314 314 315 315 313 312 312 312 311 313 312 311 313 316 316 316 315 314 313 314 314 314 313 314 316 317 316 316 314 313
311 312 312 313 314 315 316 317 317 318 316 313 314 315 317 318 319 321 321 319 318 314 311 311 312 313 313 312 312 310 310 312 312 313 313 313 314 314 314 314 313 312 312 312 312 312 312 312 312 310 310 311 312 312 313 313 314 313 313 314 313 313 313 312 311 309 309 312 313 313 314 314 314 315 315 314 315 315 313 313 313 314 316 316 317 317 314 313
311 312 312 312 313 313 315 316 317 317 315 313 314 315 315 316 317 320 320 317 315 314 313 315 315 314 314 313 313 312 311 312 312 313 314 313 313 314 314 314 313 312 312 312 313 314 313 312 311 310 312 310 308 310 311 310 312 313 313 314 313 312 313 313 312 312 312 314 314 314 314 314 313 315 315 314 315 315 314 314 314 315 316 315 316 316 314 314
310 311 312 312 312 312 313 315 316 316 314 313 313 314 314 314 315 317 317 315 314 314 315 317 316 315 315 314 314 312 311 313 313 312 313 313 313 314 314 313 313 312 313 312 312 313 312 312 313 309 311 311 308 311 312 310 310 312 313 314 313 314 315 313 313 314 315 315 315 315 315 313 314 315 315 315 316 315 315 315 315 315 316 315 315 315 315 315
310 310 311 311 311 311 312 314 315 315 314 313 313 313 313 313 314 314 315 315 315 317 318 318 317 316 315 315 315 313 312 313 313 312 313 313 313 314 313 313 314 313 312 312 311 312 312 312 314 308 308 311 310 311 314 313 311 310 311 312 312 314 315 314 313 313 314 315 314 315 315 315 316 317 316 316 317 317 317 317 317 316 316 315 315 315 315 316
309 311 311 311 311 311 311 314 314 313 314 313 312 312 312 313 313 313 314 314 315 318 319 320 320 319 317 316 314 313 313 314 314 313 314 313 313 314 313 313 314 313 312 312 311 312 312 311 313 310 308 311 313 313 314 314 313 311 313 313 312 313 313 313 314 312 313 315 314 315 316 316 317 318 317 316 317 317 318 318 319 317 315 315 315 314 315 316
309 311 311 311 311 311 311 313 313 312 314 314 313 312 312 313 313 313 314 314 315 317 317 319 321 320 319 318 316 313 313 314 313 313 314 313 313 314 313 312 313 312 312 312 312 312 312 311 313 313 310 312 315 315 314 315 316 314 313 314 314 314 313 314 315 312 312 314 315 315 317 317 318 319 317 316 318 318 317 317 318 317 315 315 315 314 314 315
308 310 311 311 311 311 311 312 312 312 313 315 314 313 313 313 313 313 314 314 315 316 315 317 319 319 319 319 318 317 315 315 314 314 314 314 314 314 313 311 312 312 311 312 313 312 313 313 313 314 315 315 313 310 308 312 316 315 313 314 314 315 315 315 317 315 313 314 314 314 316 317 319 319 317 315 316 314 312 312 315 316 315 315 316 316 315 315
308 309 310 311 311 311 312 313 313 313 313 314 314 313 313 313 313 313 314 314 315 315 315 316 317 318 319 318 318 319 317 316 317 315 314 315 313 313 312 310 311 313 313 313 313 312 312 314 313 314 316 315 311 309 307 309 312 313 312 312 313 314 315 316 316 315 316 316 315 315 316 318 318 317 313 311 310 309 309 310 311 313 314 315 316 316 317 316
307 308 309 310 311 311 312 313 313 313 313 313 314 313 313 313 313 313 314 314 315 315 316 316 317 317 318 317 318 318 317 316 317 316 316 316 314 312 311 310 311 313 313 313 314 312 313 315 314 313 315 315 313 313 312 311 311 312 313 313 313 315 316 316 315 314 316 318 318 318 318 318 317 314 311 311 312 312 311 311 312 313 315 316 315 316 316 317
306 307 308 309 311 311 312 313 312 313 313 313 313 314 313 313 313 313 314 314 314 315 315 316 316 316 316 316 317 316 316 316 318 316 316 317 316 312 310 310 311 312 313 313 313 314 314 315 314 314 316 316 317 317 316 314 312 312 314 314 314 314 315 315 314 315 316 319 319 318 318 318 317 314 313 313 315 315 313 312 313 313 314 316 316 316 315 316
306 307 307 308 309 310 310 311 311 311 312 312 313 313 313 313 313 312 313 314 314 314 315 316 316 316 316 316 316 316 315 315 317 316 315 317 318 313 309 309 310 311 312 312 313 314 315 315 314 314 316 316 318 319 318 316 315 314 315 315 314 314 315 314 315 316 317 317 318 318 318 319 318 316 315 315 314 315 316 314 313 314 315 315 316 315 315 315
306 307 307 307 308 308 308 309 310 311 311 312 312 312 312 313 313 312 313 314 314 314 315 315 315 316 316 316 316 316 315 315 316 315 315 316 318 315 310 308 308 309 311 311 312 313 314 314 314 316 316 316 318 320 317 316 316 316 316 316 314 314 315 316 315 316 316 317 317 318 318 319 318 317 317 316 314 315 316 315 314 314 316 316 315 315 315 315
305 306 307 307 307 307 307 307 308 309 310 311 311 311 311 312 313 313 313 313 314 314 315 315 315 315 316 316 316 317 316 316 316 315 315 315 316 315 312 310 308 308 309 309 309 313 315 315 316 317 316 315 316 317 316 316 317 316 315 316 315 314 315 315 315 315 316 317 317 318 319 319 318 317 317 317 316 316 315 315 316 316 315 316 316 316 315 315
304 305 306 306 306 306 306 306 307 307 309 310 311 310 311 311 312 312 313 313 313 314 314 315 315 315 315 316 317 317 317 317 316 315 315 315 315 315 315 315 310 306 307 310 309 310 314 316 316 316 315 315 315 316 316 315 315 315 315 315 315 315 315 315 315 315 316 317 317 317 318 318 318 317 317 317 317 316 315 316 315 315 315 316 317 316 316 316
303 304 304 305 305 305 304 305 306 306 306 308 309 310 310 311 311 312 312 312 313 313 313 314 314 315 315 315 316 316 316 316 317 316 315 315 315 314 315 317 313 306 306 310 310 309 312 315 315 313 314 316 316 317 316 315 314 315 315 315 315 315 315 314 315 315 316 316 316 317 318 318 317 317 317 317 316 315 314 315 314 315 316 317 317 317 317 317
302 303 304 304 305 305 304 305 306 307 306 306 307 308 309 310 310 311 312 311 312 313 313 313 313 314 314 315 315 315 315 316 316 316 315 315 315 315 315 316 315 310 307 308 310 310 311 313 314 313 314 317 316 316 316 315 315 315 315 315 315 315 315 314 314 315 315 316 317 317 317 317 316 317 317 316 315 314 314 315 314 315 316 315 316 316 317 317
300 302 303 303 304 305 305 305 306 306 307 307 307 307 308 309 309 310 311 310 310 312 312 313 313 313 314 313 314 314 315 315 315 315 315 315 314 314 314 314 314 313 310 308 309 310 309 311 313 314 316 317 316 316 316 316 316 316 316 315 314 315 315 315 315 314 315 316 317 317 317 316 316 316 316 316 315 314 315 315 314 315 315 315 316 316 316 317
Wind_Speed
18 17 16 15 14 13 13 12 11 11 10 10 10 10 10 10 10 10 10 10 10 11 11 11 10 9 7 5 4 3 3 4 5 5 4 4 4 4 3 3 3 2 2 2 2 3 3 2 3 5 5 6 7 8 8 6 7 6 3 3 3 3 3 5 8 6 0 2 8 11 14 10 6 9 9 6 8 9 8 11 12 12 14 13 9 7 6 7
19 18 17 15 15 14 12 11 11 10 9 9 9 9 9 9 9 9 10 10 11 11 11 11 10 9 7 6 4 4 3 4 5 5 4 4 4 3 4 4 3 3 3 2 2 4 3 3 4 5 5 6 6 6 5 4 4 2 1 3 3 2 2 2 6 5 1 1 8 11 13 11 5 8 10 7 6 7 8 9 13 14 14 16 14 11 9 8
19 18 17 16 15 14 13 12 11 10 10 9 8 8 8 9 9 9 9 10 11 11 11 11 10 9 7 6 5 4 4 4 5 6 5 4 4 5 5 6 5 4 4 2 2 4 4 4 4 6 7 6 5 6 4 3 3 1 1 4 2 2 1 1 5 5 2 1 6 9 12 9 4 8 10 7 4 5 10 11 11 14 16 17 17 15 14 12
19 18 17 16 14 14 13 12 12 11 10 9 9 8 8 9 9 9 10 10 11 11 11 11 10 9 7 6 5 4 3 4 6 7 7 6 6 7 7 7 6 5 4 3 2 3 4 4 5 7 7 5 4 5 3 2 2 1 1 1 2 2 1 3 7 6 2 1 6 8 9 8 5 10 10 6 5 7 12 15 14 14 15 15 16 16 16 15
17 17 15 14 13 13 13 13 12 11 10 10 9 9 9 9 9 9 10 10 11 11 11 11 10 8 7 7 6 5 4 3 6 8 8 7 8 9 8 7 5 4 4 3 2 4 5 6 7 7 5 4 3 3 2 2 5 3 1 2 3 2 1 4 7 8 3 2 6 7 7 7 7 9 11 9 9 7 8 14 16 14 14 14 14 14 15 16
15 15 14 13 13 13 13 13 12 12 11 11 10 10 9 9 9 10 10 10 11 11 11 11 10 8 7 6 6 7 5 2 6 9 8 9 9 10 9 6 4 2 1 1 2 3 6 8 7 5 4 3 1 2 3 3 4 2 1 1 2 2 2 4 6 7 6 5 7 8 7 7 7 7 10 15 16 11 8 10 10 11 12 13 14 15 16 16
15 14 14 14 14 13 13 13 13 12 11 11 11 11 10 10 10 10 10 10 11 11 11 11 10 8 7 6 6 7 4 2 6 8 8 10 10 10 8 5 4 2 2 1 1 3 6 8 7 7 5 3 2 3 4 4 1 0 3 4 3 3 2 3 4 6 8 7 6 8 8 7 8 6 7 17 24 20 17 15 12 11 11 11 13 15 16 16
14 14 14 14 13 13 13 13 13 12 12 12 11 11 11 11 11 11 11 11 11 12 12 11 9 8 7 7 6 6 5 4 6 8 9 11 11 10 7 4 3 2 3 3 2 5 6 7 9 9 4 3 4 4 4 5 2 2 4 4 3 3 2 4 5 6 7 6 7 8 7 5 7 6 6 18 26 22 21 20 18 18 16 15 15 15 15 16
15 14 14 13 13 13 13 13 12 12 12 12 12 12 11 11 11 11 11 11 12 12 12 11 9 8 7 7 7 6 5 5 6 8 9 10 10 8 6 3 3 2 3 4 4 6 6 8 9 7 4 6 6 4 3 2 2 3 4 6 4 3 3 5 5 6 5 5 7 6 4 3 6 5 9 21 26 23 22 22 21 20 20 20 19 18 18 17
15 15 14 13 13 12 12 12 12 11 11 11 11 11 11 11 11 11 11 11 12 12 12 11 9 8 7 7 7 5 6 6 6 8 9 9 9 7 4 2 1 1 3 5 5 6 6 7 7 8 8 9 6 4 2 0 4 6 7 8 5 4 4 4 4 4 4 4 5 5 2 2 3 2 8 13 15 17 19 21 22 22 22 22 21 21 21 20
15 14 13 12 12 12 11 11 11 10 10 9 9 9 10 10 10 11 11 11 12 12 11 10 9 8 7 7 6 4 6 7 7 8 9 9 9 6 4 2 1 2 3 5 6 6 7 7 9 8 7 7 7 6 5 5 7 7 8 7 6 4 3 2 2 3 2 2 2 2 1 3 1 3 11 10 8 11 12 15 18 19 21 21 21 22 22 22
14 14 13 12 11 11 10 10 9 9 8 8 8 8 8 9 9 10 11 11 12 12 11 10 9 8 7 6 5 5 7 6 7 9 10 10 9 6 4 2 2 3 4 5 7 8 7 8 8 5 6 9 7 4 6 7 6 6 6 3 2 1 2 2 1 1 2 1 3 2 3 7 7 12 18 14 14 14 14 16 17 18 20 19 20 20 21 22
13 13 12 11 11 10 10 9 8 8 7 8 7 7 7 7 8 9 10 10 11 11 11 10 9 8 6 4 4 6 7 6 5 8 11 11 9 7 5 3 3 4 5 5 7 8 7 7 5 6 11 9 4 5 8 7 5 6 3 1 1 2 3 2 1 1 2 2 4 3 5 6 9 17 20 16 17 17 17 19 20 21 21 21 21 21 22 22
12 12 11 11 10 10 9 8 8 7 7 7 6 6 6 6 7 7 8 9 10 10 10 10 9 8 6 4 5 7 8 7 6 7 10 11 9 8 6 4 4 5 6 5 7 8 7 7 6 9 11 8 8 10 7 4 2 2 1 0 0 2 1 4 2 1 3 3 6 4 6 6 5 9 11 14 18 17 19 20 21 23 22 22 23 22 23 22
13 12 11 10 10 9 9 8 8 7 7 7 6 6 5 5 5 6 7 7 8 9 9 9 8 7 5 4 5 7 8 9 8 8 10 11 10 8 7 6 5 6 6 6 7 8 10 9 8 8 9 11 12 7 3 2 2 2 2 2 1 2 1 3 2 1 1 2 6 5 5 7 7 5 4 10 14 15 18 20 21 23 22 22 22 22 23 22
13 13 12 11 10 9 8 8 8 7 7 7 6 6 5 5 4 5 5 6 7 7 8 8 8 8 4 4 6 7 9 11 10 10 11 12 11 9 8 7 6 7 7 7 7 8 8 7 8 9 7 8 6 3 3 2 1 1 2 1 2 2 1 1 2 1 2 1 5 7 5 4 3 3 3 5 7 9 13 17 18 19 20 20 21 22 23 23
12 12 12 11 11 10 9 8 8 8 7 7 6 5 5 4 4 4 4 5 5 6 7 6 7 7 4 4 7 8 12 13 13 13 12 12 12 10 9 8 7 7 7 7 7 7 5 5 7 7 3 2 1 2 3 2 3 2 1 1 1 2 2 1 2 2 1 0 5 7 7 10 7 5 6 7 9 10 11 17 20 21 22 22 22 23 24 24
7 9 10 11 11 10 10 9 8 8 7 7 6 5 4 4 3 4 4 5 5 6 6 6 7 5 5 8 9 9 13 14 13 14 13 13 13 12 11 9 8 8 8 6 5 4 3 4 3 2 2 2 2 4 4 1 2 3 3 2 1 2 3 4 1 2 2 2 5 7 9 15 15 13 15 19 20 18 17 21 25 27 29 29 28 28 27 28
3 4 5 7 8 9 10 10 10 9 8 7 6 5 4 3 3 4 5 7 8 6 3 8 11 3 2 10 12 9 10 12 12 13 14 14 14 13 11 9 9 9 7 4 3 3 2 3 2 3 3 5 6 6 3 2 3 4 3 2 1 3 4 3 1 1 2 3 7 10 12 15 15 14 17 20 20 19 20 23 27 31 32 32 32 32 31 32
0 1 2 2 5 7 7 9 9 9 9 9 8 7 5 4 3 2 7 10 11 8 2 7 14 5 2 8 14 10 8 10 12 13 15 16 16 15 12 11 10 7 4 2 2 3 2 2 3 5 4 5 7 4 4 5 4 5 3 2 2 3 5 1 3 2 1 4 8 9 11 16 16 14 17 19 15 15 18 20 26 32 34 34 34 35 35 35
1 1 1 1 1 3 4 6 7 8 9 9 10 8 6 6 4 1 6 9 11 14 8 6 12 10 3 4 11 12 9 9 11 14 15 16 17 14 11 11 8 5 2 3 4 3 2 4 7 6 1 3 4 5 6 5 3 3 2 2 1 3 6 1 4 1 2 3 7 5 8 15 15 15 18 17 13 15 20 20 24 29 31 34 37 38 38 37
4 4 4 4 2 0 1 2 4 6 8 9 11 10 7 8 8 4 4 4 7 13 13 11 12 13 10 6 8 12 11 7 9 14 16 18 19 13 10 10 6 4 3 4 4 2 3 6 7 4 7 7 5 5 5 3 2 2 2 1 2 2 4 2 3 2 3 4 6 4 7 13 14 16 19 21 17 19 27 27 27 26 25 32 38 40 40 39
8 6 7 7 6 4 2 0 2 4 6 8 10 10 8 8 8 7 6 3 4 9 13 15 15 16 15 11 10 12 12 7 8 16 19 19 18 13 11 10 5 4 5 6 7 5 4 5 3 8 10 7 5 4 5 3 2 3 2 3 3 1 2 3 1 3 4 3 5 6 9 11 12 14 19 23 19 20 30 32 31 32 32 37 42 41 41 41
12 10 9 10 10 9 6 3 1 2 4 6 8 9 9 7 6 6 4 2 3 6 11 14 16 19 19 14 12 13 12 8 8 15 20 21 18 12 10 8 5 4 6 8 7 7 3 1 3 8 8 6 6 5 7 4 3 3 5 6 4 3 4 3 3 2 4 3 2 6 10 8 9 12 13 11 8 14 24 23 24 32 34 36 38 38 37 38
16 14 12 11 13 13 11 9 4 3 5 6 7 9 8 7 6 5 4 1 3 3 6 11 13 17 20 17 14 12 11 9 9 13 20 23 19 11 7 6 5 5 6 6 3 6 3 4 7 7 5 6 6 6 7 6 4 3 6 9 9 7 4 2 3 5 4 2 1 3 8 4 4 7 8 4 3 10 14 12 18 29 30 30 32 34 34 34
19 18 16 15 16 16 13 10 7 5 5 6 7 9 9 7 7 7 5 1 3 3 4 9 9 10 15 16 15 12 6 8 12 14 19 23 20 12 6 5 2 2 6 6 2 4 2 5 6 5 6 6 5 4 5 6 4 3 3 6 9 5 1 2 0 2 4 3 1 1 5 7 3 7 10 7 8 14 12 10 18 27 28 29 31 34 34 33
22 22 20 19 19 20 15 10 10 7 4 5 7 9 10 9 9 8 5 2 4 5 7 8 9 9 11 13 19 15 3 6 11 14 20 23 19 13 7 6 3 2 5 4 2 2 3 6 4 4 6 5 5 4 5 8 6 1 1 1 5 5 4 4 2 3 4 5 2 4 3 8 7 7 9 8 10 15 13 11 16 21 25 27 27 27 26 25
24 23 23 22 23 22 18 15 15 10 6 5 6 10 12 12 12 8 4 3 2 6 6 7 8 10 12 16 22 12 4 9 8 11 22 23 18 11 6 8 7 5 7 6 5 2 3 6 7 8 6 5 5 1 5 11 5 1 1 1 4 4 3 4 2 3 1 5 5 5 6 6 7 3 3 3 7 11 12 11 12 14 18 21 18 18 17 15
23 24 24 24 23 23 22 22 20 14 10 5 7 13 14 15 11 5 1 3 3 5 3 7 9 9 13 16 14 6 6 6 1 10 20 18 16 9 3 9 8 6 6 4 3 0 1 2 5 7 5 5 3 5 1 8 3 3 5 5 6 5 4 4 1 1 1 5 5 7 9 6 7 3 5 2 5 8 8 7 7 9 14 15 12 12 10 8
18 20 22 22 23 25 26 26 23 18 13 8 10 16 17 14 7 4 4 3 2 3 3 7 7 9 15 14 5 1 3 1 4 13 14 9 11 6 5 9 6 4 2 3 2 1 2 2 1 4 3 3 6 6 4 1 6 10 8 5 6 4 3 2 0 1 2 6 3 8 12 7 6 3 6 4 2 3 4 4 5 7 10 9 6 7 5 4
15 17 18 21 25 27 27 29 27 23 18 13 14 20 18 8 2 5 6 0 1 3 5 4 3 8 16 12 5 4 2 1 7 13 9 5 7 6 7 7 4 3 1 4 3 2 1 1 1 3 5 7 8 6 6 5 6 6 3 3 3 1 1 1 1 2 5 7 1 3 6 6 7 5 3 2 2 2 4 4 4 4 7 8 5 5 3 2
14 16 17 20 25 26 27 29 27 23 21 17 19 21 12 3 2 5 4 3 1 4 5 3 2 7 11 6 3 6 4 2 7 8 5 5 6 7 7 7 6 5 4 7 5 2 2 3 1 3 6 8 6 6 6 3 2 2 3 5 4 3 2 3 3 3 5 5 1 1 2 4 10 8 5 8 8 8 7 8 10 10 14 16 11 9 8 4
13 16 16 17 21 24 26 27 22 21 22 21 23 17 6 3 6 8 7 4 1 1 3 4 3 6 9 6 3 5 3 2 7 6 2 3 5 7 6 4 4 3 3 6 4 3 3 1 3 4 4 8 9 7 5 4 5 7 7 7 6 5 4 5 4 1 5 3 3 4 3 5 9 7 10 16 16 14 12 15 20 20 22 24 20 17 17 14
14 14 15 16 18 20 22 23 21 20 22 26 24 12 4 6 6 8 11 5 2 2 3 4 7 7 7 4 2 6 3 2 7 5 3 5 5 7 6 5 6 2 2 3 4 6 7 4 7 9 5 12 13 7 4 5 7 8 4 3 5 5 5 5 3 2 4 2 2 4 3 5 5 1 4 10 11 15 20 24 27 26 28 30 29 27 26 24
14 14 15 16 17 18 19 22 23 21 23 27 18 5 7 8 4 6 8 3 2 1 3 4 8 8 6 2 0 4 3 1 5 4 4 7 6 7 8 8 10 6 3 4 3 4 5 5 4 4 4 14 13 4 5 6 4 3 1 1 5 4 2 1 1 1 1 3 2 4 4 6 3 3 4 5 6 11 18 22 24 28 34 35 36 36 31 27
13 13 15 16 19 19 19 22 24 23 25 25 10 3 8 6 3 3 4 4 3 5 7 4 4 6 6 4 2 5 2 1 6 5 4 5 4 6 7 6 10 11 9 7 2 3 3 2 2 2 1 8 5 2 5 3 3 4 3 4 3 1 1 1 1 2 2 5 5 4 6 6 3 6 8 7 7 8 8 11 15 26 33 33 36 36 27 21
12 13 14 16 18 17 18 22 22 24 27 20 6 5 5 3 4 3 2 4 6 9 9 5 4 6 7 5 5 7 4 2 6 6 5 4 4 7 8 5 8 14 14 9 2 2 3 1 1 1 2 3 1 3 4 2 1 4 5 6 3 2 1 2 4 1 3 7 5 3 8 7 5 5 2 4 8 10 9 10 12 20 26 30 34 31 22 17
12 13 16 18 17 16 18 20 21 25 24 13 5 7 3 2 5 4 3 4 6 8 8 6 6 6 7 7 6 8 8 5 7 6 5 5 5 9 11 6 8 17 19 12 3 1 3 3 1 1 0 1 2 2 3 2 2 1 2 4 3 2 4 4 4 4 5 6 4 3 6 6 7 7 3 5 9 11 11 12 12 15 20 25 30 27 20 17
10 11 14 17 17 17 18 18 24 27 17 5 4 6 4 3 5 8 8 5 3 5 6 7 6 5 6 7 4 8 9 8 9 8 6 6 5 8 14 10 8 15 21 16 6 1 3 5 3 1 2 1 3 5 7 5 2 2 0 3 1 3 3 4 3 2 4 5 4 4 5 7 7 7 7 11 12 11 12 10 10 12 17 23 25 24 21 18
8 8 8 11 13 17 19 20 24 22 8 3 5 4 4 5 5 11 16 10 3 3 4 4 3 3 4 4 2 5 7 6 8 8 6 8 6 5 11 12 6 6 14 17 8 2 3 5 4 2 1 3 5 7 9 10 8 6 6 7 5 2 0 2 2 1 2 4 3 3 6 9 5 5 8 11 10 10 11 9 8 11 19 24 23 22 21 19
9 7 6 9 12 18 24 21 16 10 3 3 5 3 5 5 5 10 16 15 9 4 4 4 3 3 2 2 2 3 4 5 7 7 5 7 9 5 7 12 10 8 8 10 9 6 5 4 4 4 3 6 5 1 3 6 7 8 8 10 10 8 5 4 5 2 1 3 2 2 7 11 4 3 6 8 5 5 6 7 7 11 19 21 17 17 19 19
10 7 6 10 14 23 27 16 7 5 4 5 6 6 7 6 6 9 13 14 9 4 4 3 4 6 5 5 5 2 3 3 5 6 4 5 8 4 3 9 15 17 12 5 7 8 4 2 4 4 4 4 0 3 2 2 1 1 3 5 7 8 8 8 6 4 3 2 1 1 6 11 3 3 2 3 1 2 4 6 7 11 16 14 11 11 14 16
12 10 8 10 18 29 25 9 6 7 4 6 6 6 9 7 6 8 10 11 7 4 5 3 2 6 6 5 6 5 4 4 4 6 4 4 5 4 2 7 13 14 9 2 3 5 4 1 5 4 2 1 2 2 1 2 1 3 3 2 4 8 10 6 2 3 5 5 4 3 6 10 3 2 1 2 3 5 5 7 10 13 15 12 10 10 12 15
14 12 11 9 17 29 22 5 6 10 8 8 6 6 10 7 7 10 9 10 8 4 4 4 4 6 4 2 4 5 6 5 4 6 5 3 2 3 5 11 14 10 7 3 4 10 8 3 5 6 4 3 3 3 3 2 3 5 4 5 8 11 9 1 1 2 4 8 11 8 8 10 2 2 1 2 3 6 6 8 11 14 15 12 11 12 14 18
11 11 13 14 21 29 23 8 5 8 12 12 9 10 11 6 10 17 14 11 12 8 6 7 8 8 4 2 3 2 4 6 5 4 5 4 2 1 4 13 17 13 9 5 3 10 8 3 6 8 7 8 8 5 4 5 5 4 5 8 11 13 11 5 2 5 7 10 13 9 9 13 4 2 3 4 2 3 6 9 12 14 14 11 12 14 15 19
8 7 8 12 19 25 22 15 9 7 11 13 9 11 13 8 7 14 15 13 15 14 9 7 9 9 6 5 5 3 5 6 4 2 3 2 1 1 2 9 12 9 6 3 6 8 2 1 7 12 11 12 10 3 2 6 9 8 10 10 11 12 14 9 4 7 10 9 10 11 14 19 14 5 5 5 3 4 6 7 10 13 13 12 14 15 15 19
7 5 7 7 9 13 13 13 10 6 8 12 8 6 13 13 6 8 13 13 15 17 10 4 8 9 8 10 10 8 9 8 5 4 5 5 3 2 2 3 7 7 4 3 9 8 1 2 9 13 14 16 10 2 4 7 10 13 14 13 13 13 14 12 11 14 14 9 11 15 16 18 20 14 10 7 5 5 6 6 10 13 13 13 14 15 16 20
10 5 10 12 6 4 8 12 12 10 8 9 7 6 11 14 11 9 10 10 12 16 10 5 10 13 12 13 10 7 9 10 8 8 8 7 5 3 1 1 4 6 2 1 4 5 1 4 6 8 14 19 12 2 5 5 5 7 11 13 14 15 15 16 18 20 17 12 12 15 16 17 20 20 14 11 10 10 10 12 14 15 15 13 14 16 18 21
16 7 8 12 7 2 5 9 12 12 10 7 6 7 10 13 14 11 8 7 9 13 12 9 12 16 15 13 11 8 9 9 9 9 9 8 8 6 5 3 2 3 3 3 2 2 2 4 5 4 8 15 15 8 7 7 4 4 7 9 11 15 18 19 19 19 20 18 14 17 20 21 21 19 12 11 16 19 19 19 18 16 16 16 17 19 19 21
20 13 7 7 5 3 2 4 8 9 9 8 6 6 8 11 13 10 9 9 8 10 15 16 14 14 14 14 12 11 11 10 10 11 10 9 7 5 5 4 2 2 3 3 2 1 3 5 3 4 4 11 15 14 9 7 7 8 7 7 10 15 17 18 17 15 16 17 18 20 21 20 20 18 13 15 19 17 17 20 21 21 23 24 26 27 26 26
23 18 12 6 3 5 5 3 5 6 6 7 8 7 7 9 10 7 7 11 10 7 12 18 16 11 11 15 14 14 16 15 14 14 13 13 12 10 8 7 7 5 3 3 2 2 4 3 1 4 6 10 12 14 13 10 7 8 11 13 16 17 15 14 13 14 16 18 19 19 16 16 17 15 15 17 14 12 13 17 22 28 31 32 34 35 34 33
26 19 15 11 6 5 6 3 4 6 7 7 9 9 8 7 9 8 5 8 14 14 13 16 15 10 9 14 16 18 22 21 20 20 17 16 19 17 14 13 13 11 7 5 3 3 5 3 2 4 5 9 9 8 7 7 5 7 13 18 20 17 14 12 13 17 20 17 15 14 12 15 18 15 16 17 11 10 14 19 24 31 33 34 36 37 36 37
Wind_Direction
184 185 182 182 184 185 188 188 191 192 192 192 193 194 193 194 194 195 196 195 193 191 187 182 182 181 180 184 186 186 181 176 175 176 171 167 157 140 138 131 129 139 153 178 179 189 176 150 145 139 132 128 128 128 130 132 141 157 176 207 199 186 181 177 183 177 105 166 164 173 184 191 187 189 201 209 207 219 232 230 232 230 225 223 214 207 205 205
185 184 182 185 186 186 190 191 194 196 197 197 199 200 199 199 199 199 198 197 195 192 188 183 183 182 182 185 187 191 186 184 179 180 183 177 168 144 131 131 128 130 127 132 184 197 188 171 150 143 144 128 116 129 129 117 127 131 146 213 210 167 140 168 183 166 11 231 160 169 185 197 203 180 192 210 198 205 230 235 233 236 232 228 226 221 220 221
185 184 185 187 187 189 191 192 196 198 200 201 205 206 205 205 203 203 199 198 195 192 189 185 184 184 185 187 187 189 185 187 185 186 189 181 168 151 139 132 123 118 110 112 175 199 193 171 142 141 141 122 113 133 125 112 131 84 187 222 202 111 81 153 177 151 44 336 155 162 181 196 214 181 189 215 203 199 228 231 225 233 235 233 234 231 231 235
187 188 190 191 192 195 194 195 198 199 202 204 208 210 211 210 207 205 200 198 196 193 190 186 185 185 186 188 187 182 178 190 190 188 189 181 168 158 151 141 126 108 98 111 158 174 172 155 139 139 131 110 105 124 98 74 142 124 203 255 71 117 127 142 176 166 77 61 158 155 170 194 206 190 191 202 216 222 232 234 232 238 240 240 242 239 239 242
192 194 196 198 199 199 199 199 200 201 204 205 208 210 209 209 208 204 200 198 196 194 191 188 187 187 187 189 188 175 166 187 190 188 185 178 172 167 164 156 141 116 99 95 139 161 157 148 143 139 123 109 115 123 79 70 122 117 34 9 74 141 103 128 177 188 178 126 154 158 170 194 192 197 203 203 225 235 235 240 241 246 248 250 249 243 242 244
196 199 201 203 202 202 202 202 204 205 204 205 205 205 204 204 203 200 200 198 196 195 193 190 187 188 188 189 192 183 184 197 181 186 185 180 177 173 173 172 166 145 121 83 122 155 153 153 150 135 109 96 81 95 106 129 143 133 70 115 128 86 64 130 173 193 187 165 164 177 192 195 188 210 218 217 231 238 241 248 247 249 248 250 250 244 244 243
195 199 203 203 202 203 203 203 205 206 204 203 201 201 200 197 196 196 197 197 196 196 193 190 189 190 189 189 192 184 189 150 159 178 182 180 179 177 181 186 200 219 230 225 162 159 152 162 155 130 111 96 106 91 103 129 162 216 120 145 153 74 58 132 160 179 175 183 187 191 199 195 199 222 229 231 238 239 244 251 251 253 249 249 250 248 248 248
190 194 198 199 201 202 202 203 202 202 200 199 198 198 196 194 194 193 194 196 195 195 192 189 188 189 188 191 189 174 166 138 145 163 167 174 177 182 192 202 235 245 224 231 189 159 150 163 155 137 105 91 132 124 121 127 81 50 118 143 145 92 105 125 133 154 161 187 189 186 198 201 219 242 255 247 247 247 249 252 253 255 255 254 254 251 249 248
182 185 189 193 195 196 197 198 197 196 195 195 194 193 192 191 191 191 192 193 192 192 189 187 188 190 190 191 189 177 172 160 150 155 159 170 176 184 198 220 256 246 209 205 180 168 159 164 160 159 140 119 128 125 145 175 78 67 111 134 137 114 124 129 135 146 154 167 172 183 191 215 241 265 264 254 254 256 254 252 253 253 254 255 256 255 252 250
176 179 183 186 187 188 190 191 193 193 192 193 190 188 188 186 186 186 187 187 188 188 187 188 189 190 190 188 192 186 180 176 165 165 165 167 174 185 193 221 254 169 183 185 175 168 162 163 152 144 134 124 120 97 71 26 104 103 113 111 98 103 118 134 149 151 163 151 170 205 193 243 259 265 257 251 250 254 253 252 252 252 252 253 253 254 254 254
174 176 178 179 183 184 184 186 188 189 190 190 187 187 186 183 181 180 183 184 183 183 185 187 187 189 189 186 187 173 175 183 177 175 173 173 176 179 181 192 154 124 158 166 156 150 149 150 145 139 128 127 121 89 74 92 102 107 125 116 74 78 118 139 160 160 188 149 152 204 251 256 198 222 244 241 241 248 251 252 252 253 253 253 252 250 251 253
174 175 176 178 182 183 184 187 186 187 188 186 188 188 186 185 182 179 182 182 180 182 183 184 186 189 188 186 178 155 158 167 176 182 180 180 180 180 185 175 138 117 132 150 142 135 135 140 148 148 132 138 134 102 101 100 97 101 121 141 87 112 166 145 165 206 220 184 122 114 266 239 201 230 244 243 249 253 255 258 257 257 257 256 254 251 251 251
176 177 179 180 183 184 186 187 185 186 184 185 188 186 184 185 183 183 184 183 182 180 180 183 185 189 189 184 181 174 171 161 164 183 185 184 182 185 189 172 154 127 127 147 138 130 132 137 147 136 130 133 123 123 115 91 95 107 84 321 150 204 206 121 70 214 206 196 137 140 271 241 204 230 243 246 251 255 258 260 260 260 261 260 259 258 257 255
181 183 183 183 185 186 186 185 183 182 181 183 182 178 179 178 178 182 184 187 187 183 183 184 184 190 189 177 182 189 194 194 188 188 188 188 185 184 185 173 154 132 128 137 136 129 120 121 134 128 121 118 118 123 111 69 68 98 71 284 152 244 168 99 75 168 205 191 152 175 263 260 232 230 239 249 252 254 258 260 263 264 264 262 260 260 259 258
187 189 188 188 188 188 188 185 182 181 181 180 177 176 174 172 172 174 179 183 186 187 187 187 188 189 185 185 197 200 201 205 206 201 193 191 189 185 181 169 153 141 133 131 132 127 119 123 128 111 103 119 129 131 110 85 64 43 235 172 113 254 168 96 88 145 241 165 163 197 255 266 270 263 255 262 256 252 257 262 267 268 267 264 261 259 259 259
193 192 191 191 190 191 192 188 188 187 184 182 178 176 173 172 170 169 173 173 177 182 182 186 192 189 188 194 200 207 206 206 206 201 197 193 190 186 178 168 157 146 136 136 134 129 129 127 116 104 106 127 140 153 127 145 147 68 270 227 143 227 279 64 96 72 346 65 191 223 265 273 276 292 278 266 256 253 260 267 271 273 272 270 266 263 261 261
201 198 196 194 192 193 193 192 194 194 194 191 186 184 180 177 175 175 171 168 170 169 173 177 177 188 215 203 198 208 205 206 205 199 198 194 190 187 184 173 160 154 147 146 142 138 135 122 116 110 107 113 147 171 160 218 213 146 253 251 199 228 263 248 118 96 58 286 225 226 251 258 259 277 273 268 274 274 267 270 276 278 277 275 273 270 266 264
198 201 201 198 197 196 195 195 195 198 202 200 198 196 192 193 192 188 177 173 163 151 166 169 158 179 222 201 199 206 202 202 201 198 194 189 186 185 188 184 171 161 149 146 147 141 118 107 124 129 114 130 170 192 204 210 170 166 184 196 220 213 228 253 239 131 160 222 235 226 242 257 260 262 265 267 270 272 270 272 276 276 276 276 274 270 267 265
162 176 186 190 192 194 196 195 194 198 201 203 206 200 199 197 191 201 191 174 162 153 172 185 179 179 212 193 195 195 195 195 193 194 190 186 185 181 184 183 174 162 152 162 154 116 118 113 131 184 191 192 194 203 202 96 106 133 152 184 199 229 245 241 154 114 199 238 243 239 249 262 264 263 266 266 264 264 267 271 272 272 273 273 272 270 266 263
128 120 137 160 171 178 187 190 192 196 197 202 201 194 189 167 153 209 203 194 191 195 217 192 193 203 57 181 193 186 175 182 186 188 187 187 183 177 175 168 162 161 155 180 140 104 159 187 192 216 222 192 187 177 95 85 94 107 124 178 176 255 270 211 104 85 199 255 253 241 254 268 271 271 269 268 265 261 258 259 262 266 268 269 269 268 266 264
246 292 326 321 157 154 171 178 182 186 192 200 197 192 191 186 189 195 190 205 215 216 227 210 200 212 218 174 189 188 174 172 182 184 186 185 179 177 174 162 161 174 132 97 111 110 158 210 225 224 110 101 143 124 110 108 93 108 168 210 198 238 264 275 91 114 166 235 262 247 258 268 271 274 272 268 261 259 256 251 255 261 264 267 268 268 266 266
231 263 285 286 293 326 149 145 164 180 186 197 198 198 208 217 228 237 211 223 229 224 229 224 211 216 222 207 187 188 180 169 180 185 183 178 179 182 171 167 183 180 131 117 131 141 195 229 231 162 98 88 100 125 140 128 112 137 162 210 238 234 275 291 90 100 176 218 269 278 271 268 270 275 273 265 256 258 261 258 259 262 264 265 266 267 267 267
230 243 266 276 281 285 286 99 155 177 182 195 202 202 213 226 229 239 240 241 247 235 228 224 220 218 217 214 203 192 185 179 181 186 184 179 181 185 173 172 182 146 151 183 190 189 196 237 211 133 131 120 100 136 149 127 167 197 177 204 234 174 275 261 112 118 174 215 297 299 284 269 261 264 265 262 256 258 264 264 264 265 263 264 265 266 266 266
234 233 249 266 272 276 281 278 233 176 192 201 206 202 209 220 215 223 217 226 277 242 228 224 222 222 219 217 214 201 196 201 190 188 189 183 177 180 179 169 153 152 181 195 205 217 209 40 122 142 160 154 127 153 169 178 207 208 207 217 231 219 222 248 348 342 204 195 307 294 286 266 235 244 255 261 256 260 265 265 266 265 264 265 266 266 265 265
237 236 236 247 262 270 274 272 261 224 209 205 205 200 203 204 195 193 173 214 275 219 227 224 219 227 222 218 216 201 200 215 210 196 192 188 179 168 160 159 171 191 185 169 199 244 238 112 131 143 162 164 152 172 186 195 213 221 216 218 230 237 227 224 2 336 278 237 135 299 295 276 190 227 251 260 264 265 262 256 265 269 269 267 267 269 270 269
240 240 235 235 249 258 262 265 258 246 222 204 205 197 194 182 164 167 152 35 267 185 179 202 205 217 213 211 199 183 205 227 212 200 190 190 187 172 152 148 177 202 157 147 196 257 217 134 139 143 153 161 175 199 192 192 216 240 215 216 227 231 203 205 182 287 284 300 214 193 291 285 242 222 242 252 263 268 264 255 264 268 269 268 269 273 275 275
241 239 236 232 239 245 249 254 254 252 224 211 207 187 178 165 149 154 154 308 259 172 146 175 184 190 195 192 181 177 208 183 183 191 186 187 189 186 185 161 144 169 144 145 218 219 149 161 164 147 150 164 190 204 188 190 206 222 54 189 193 179 190 200 186 225 281 327 268 173 194 278 274 226 229 240 257 270 268 262 264 264 268 273 276 280 281 281
239 239 235 232 236 242 244 249 253 250 235 231 200 176 165 155 149 146 163 260 229 135 142 165 167 180 179 173 175 174 126 142 155 184 182 184 185 185 203 188 173 169 162 180 217 212 151 184 189 173 171 191 195 186 170 183 201 357 56 96 137 150 166 154 169 225 310 328 277 171 157 260 278 205 180 221 242 262 264 258 261 264 274 283 289 293 292 289
233 235 235 232 236 240 241 241 242 239 237 227 173 168 159 152 150 132 160 236 160 114 138 157 154 166 159 161 176 167 127 143 113 170 173 179 184 181 196 189 174 145 165 218 240 40 38 213 192 180 191 199 150 36 157 189 181 133 140 98 91 87 80 102 216 196 115 282 260 166 170 250 283 199 152 169 227 249 258 257 261 273 284 292 303 309 307 304
229 231 232 229 229 231 235 237 235 233 230 218 182 165 154 149 148 151 190 223 179 110 112 152 163 161 151 153 179 171 135 116 104 144 157 172 180 168 130 154 148 122 153 287 281 100 46 55 146 197 204 135 109 63 21 88 127 140 144 105 92 85 72 86 34 82 227 262 237 164 182 225 283 223 172 174 198 231 244 255 263 276 284 290 314 325 336 8
230 229 226 226 226 226 229 233 232 225 214 203 181 164 154 144 141 189 191 184 25 139 126 146 155 154 159 159 171 171 142 71 140 151 153 161 169 145 130 143 131 123 195 260 224 129 86 148 151 186 149 117 107 82 45 60 125 147 149 131 127 137 138 158 157 143 233 248 238 172 193 219 248 233 191 236 293 261 238 249 265 276 276 275 295 303 300 34
229 228 225 225 228 229 228 232 232 218 207 196 177 166 155 143 229 219 194 88 128 180 153 157 168 166 169 160 154 162 144 130 166 172 163 159 175 173 179 186 165 164 223 221 199 116 191 205 121 126 154 156 140 100 77 73 176 209 164 160 198 217 193 228 209 179 237 239 115 140 183 243 251 253 271 274 270 254 235 238 255 267 270 272 275 274 270 277
226 228 227 222 227 229 228 235 233 219 213 198 177 165 147 184 202 213 201 161 154 189 115 113 138 164 166 159 164 158 135 158 171 177 169 162 193 201 223 239 184 204 236 190 177 165 202 238 146 158 177 190 186 157 152 180 190 196 182 175 196 197 209 234 207 201 265 255 109 140 164 246 267 268 246 246 248 246 242 247 256 264 269 272 272 267 270 271
226 229 227 220 227 229 229 234 229 226 216 188 169 159 175 203 197 205 206 189 45 24 63 104 126 144 169 175 177 166 162 183 166 164 161 165 194 210 224 238 218 260 39 157 186 188 214 252 179 173 163 178 195 202 160 140 168 194 188 179 201 195 210 230 212 234 269 302 136 159 172 227 251 343 238 247 259 254 250 252 256 261 263 267 270 269 268 267
226 229 224 219 222 221 226 231 226 231 212 177 161 166 196 202 204 208 208 173 95 87 63 97 129 142 186 227 349 187 208 222 166 159 171 179 198 204 201 208 202 193 162 194 202 169 224 266 169 147 142 166 183 195 120 115 159 190 91 209 230 220 201 246 304 236 329 328 239 191 230 240 235 304 263 251 269 254 248 250 254 257 256 258 265 267 266 266
229 230 225 221 218 213 218 223 226 230 203 171 158 214 195 206 209 182 185 151 148 138 115 117 139 153 187 195 191 203 231 82 160 172 200 201 233 218 207 211 195 190 190 192 165 144 217 287 91 60 142 174 184 154 139 156 178 158 168 201 225 335 73 178 247 80 111 266 256 211 249 267 279 274 241 216 236 242 241 247 246 248 250 252 256 259 262 269
226 225 228 224 218 213 212 213 222 223 198 173 177 211 189 228 206 154 150 146 136 140 143 163 185 179 185 186 194 193 187 144 165 188 193 183 241 217 207 232 197 194 204 208 219 203 209 269 136 148 194 204 339 83 99 19 77 136 187 187 138 24 352 214 237 220 200 247 262 224 249 268 274 269 212 170 229 241 242 242 239 243 248 249 250 254 262 269
224 224 233 232 223 214 207 208 216 211 193 175 200 207 193 229 198 179 158 128 134 162 182 203 193 184 188 190 186 178 181 175 169 192 188 171 225 201 182 203 200 199 208 212 237 237 199 234 204 95 224 143 96 150 145 61 36 69 187 158 134 220 206 186 215 227 225 240 255 248 261 263 240 238 228 203 220 232 238 235 233 239 242 244 248 253 259 260
225 223 239 240 228 213 203 205 208 200 186 175 214 208 213 217 200 196 182 141 114 178 201 213 202 199 197 190 165 162 186 189 168 182 194 182 211 191 178 190 199 199 199 194 200 165 174 229 225 70 309 110 130 209 197 167 117 25 137 168 196 259 215 186 186 216 233 237 256 278 284 262 225 205 218 226 224 224 227 226 228 235 239 245 250 251 249 249
214 217 245 236 217 206 198 199 201 194 180 204 207 186 190 198 202 206 201 195 185 189 209 224 210 198 189 179 147 165 197 207 177 187 203 186 199 199 184 187 172 179 189 187 197 174 152 223 224 100 305 209 183 208 202 180 168 175 193 188 186 183 340 258 207 143 243 237 248 278 279 269 241 163 198 223 226 223 224 227 227 239 248 251 252 249 244 241
206 219 242 213 198 189 186 190 194 191 198 214 199 186 182 182 182 194 198 201 206 205 205 219 222 212 183 170 200 180 193 209 192 202 217 198 210 223 191 189 167 134 158 182 203 203 178 206 202 157 189 208 199 223 234 198 178 184 195 193 193 179 159 212 208 159 271 245 227 240 270 273 262 138 201 221 220 221 222 230 233 240 247 251 256 254 245 235
210 226 223 199 195 182 177 184 190 182 213 213 204 197 172 162 172 179 183 192 200 200 189 204 220 216 213 209 210 173 164 211 204 204 226 224 220 223 191 196 175 153 149 169 203 196 160 157 208 198 194 205 169 41 349 305 313 255 232 204 200 184 179 205 208 178 179 215 256 300 270 271 265 117 204 227 236 249 220 225 235 239 243 249 260 254 236 227
212 227 211 195 197 184 177 189 203 189 218 214 201 183 166 165 172 173 181 188 187 177 184 190 185 198 211 211 204 183 170 207 221 210 239 273 238 235 222 190 173 160 157 160 188 170 125 138 216 220 200 127 59 73 63 24 22 250 258 183 194 207 206 213 220 183 176 182 200 205 242 259 266 103 224 273 288 274 242 225 234 243 247 249 255 242 214 206
217 228 221 210 201 188 183 195 196 198 217 205 195 190 185 189 177 170 181 190 185 166 178 202 196 193 205 176 179 185 177 192 227 223 232 264 232 219 199 181 175 178 193 196 167 168 169 194 206 210 226 204 182 195 196 161 180 224 226 192 207 214 205 166 39 217 207 201 206 211 239 252 259 70 265 245 262 273 261 240 241 249 252 247 245 237 208 193
208 223 228 222 207 196 197 215 201 204 215 207 208 205 196 197 192 192 193 186 185 181 181 207 202 187 183 139 126 151 179 201 236 232 227 248 260 254 205 189 188 198 216 229 170 169 180 203 191 197 219 217 210 214 206 174 161 210 221 198 205 205 193 187 195 210 224 219 214 219 244 252 249 92 237 235 224 271 263 246 243 246 248 242 234 228 211 196
189 200 222 220 214 209 213 222 221 220 216 210 216 212 205 208 200 199 201 193 191 192 193 202 192 181 177 174 179 196 205 218 237 236 232 244 255 324 242 203 202 217 241 214 162 163 172 301 210 212 223 226 229 239 150 137 152 200 216 192 192 199 195 198 211 218 225 232 233 228 237 254 258 225 208 225 224 248 248 236 236 241 241 235 230 226 218 208
208 195 193 192 217 227 230 232 228 224 212 203 202 211 212 214 204 190 200 203 198 197 206 213 186 185 187 189 201 212 207 213 222 231 246 247 247 310 339 210 219 241 270 171 155 155 132 252 222 228 238 244 253 244 147 158 173 204 213 195 190 198 195 198 216 225 224 228 243 235 230 249 261 249 227 221 225 240 248 244 241 243 241 236 236 235 228 219
221 220 201 191 193 217 225 230 222 214 214 203 198 214 215 213 214 200 194 202 203 198 204 222 205 204 199 192 201 214 205 209 215 217 230 234 231 252 302 187 211 219 220 131 154 154 168 233 219 225 242 251 260 220 164 200 198 201 212 205 196 193 191 201 217 225 224 223 241 248 238 241 256 256 239 225 232 233 234 242 244 243 245 248 248 244 236 229
218 239 216 200 205 204 207 217 209 209 219 213 208 223 216 212 216 206 179 186 208 202 200 211 212 210 209 204 206 213 205 203 210 213 217 220 214 213 227 223 190 181 143 133 218 176 160 229 218 196 247 256 256 244 201 205 230 229 217 211 202 196 195 204 217 223 226 230 242 254 252 248 253 257 251 246 249 241 231 235 240 242 247 256 262 258 250 242
214 224 215 193 207 212 177 178 180 195 213 208 208 224 220 218 217 202 182 185 194 196 202 215 218 207 208 213 213 218 216 204 209 214 205 208 210 196 219 224 161 133 135 145 232 201 178 224 203 155 240 258 254 253 237 210 229 245 233 217 214 214 209 211 222 225 226 235 241 246 253 257 255 257 266 262 248 234 224 227 232 239 245 251 256 258 255 251
213 215 214 207 206 201 196 166 154 182 203 196 202 215 214 220 218 202 200 206 205 194 194 209 220 213 210 219 218 222 224 214 219 224 207 205 213 201 203 202 158 142 159 159 163 170 188 234 142 145 224 247 242 245 247 238 233 245 247 232 220 220 218 215 221 224 224 231 238 242 249 257 256 257 264 258 235 209 213 218 223 235 241 242 245 248 250 252
213 210 209 211 218 205 194 169 168 204 215 197 198 210 211 213 210 205 217 221 220 225 216 210 218 217 214 223 223 226 231 229 234 242 233 221 221 213 208 202 176 163 169 160 154 168 168 192 212 172 213 249 244 230 238 247 233 233 241 234 224 222 225 225 225 228 228 227 233 237 234 244 255 257 256 253 232 208 221 221 222 232 238 240 243 246 249 252